Location: Bermeries
(50.2863°N, 3.7551°E)
Time: 14:27:14
(UTC+00:00)

NOSS 3-4 (A) - Pass Details

Date: 23 May 2024
Orbit: 801 x 1410 km, 63.4° (Epoch: 04 June)

Event Time Altitude Azimuth Distance (km) Brightness Sun altitude
Rises 00:32:56 0° 315° (NW) 3,752 7.0 -18.2°
Reaches altitude 10° 00:35:26 10° 310° (NW) 2,881 6.3 -18.1°
Maximum altitude 00:42:05 53° 237° (WSW) 1,418 4.0 -17.8°
Enters shadow 00:47:12 21° 170° (S) 2,473 5.1 -17.6°
